[[{"header":{"parameterUnit":"m.s-1","parameterCategory":2,"la1":30.2991,"la2":30.254,"lo1":-89.0895,"lo2":-89.0444,"dy":0.0017,"dx":0.0017,"nx":28,"ny":28,"refTime":"2023-08-29T03:00:00:Z","depth":"0","parameterNumber":2,"parameterNumberName":"U-component_of_CURRENTS"},"data":[0,0,0,0,0,0,0,0,0,0,0,0,0,0,0,0,0,0,0,0,0,0,0,0,0,0,0,0,0,0,0,0,0,0,0,0,0,0,0,0,0,0,0,0,0,0,0,0,0,0,0,0,0,0,0,0,0,0,0.2422,0.2422,0,0.2402,0.2401,0.2401,0.2386,0.2386,0.2386,0.2386,0.235,0.2349,0.2348,0,0,0,0,0,0,0,0,0,0,0,0,0,0.2419,0.2419,0.2422,0.2422,0.2422,0.2402,0.2401,0.2401,0.2386,0.2386,0.2386,0.2386,0.2351,0.2349,0.2348,0,0,0,0,0,0,0,0,0,0,0,0,0,0.2409,0.2419,0.2422,0.2414,0.2414,0.2402,0.2401,0.2401,0.2386,0.2386,0.2386,0.2386,0.2351,0.2349,0.2348,0.2334,0,0,0.2343,0.2342,0,0,0,0,0,0,0,0,0.241,0.2409,0.2416,0.2415,0.2414,0.2399,0.2387,0.2379,0.2386,0.2394,0.2386,0.2387,0.2367,0.2364,0.2356,0.2333,0.2331,0.2343,0.2342,0.2341,0.2341,0,0,0,0,0,0,0,0.2411,0.241,0.2411,0.2416,0.2415,0.2402,0.2401,0.2385,0.2377,0.2393,0.2393,0.2394,0.2366,0.2357,0.2355,0.233,0.2343,0.2341,0.234,0.234,0.2329,0.233,0,0,0,0,0,0,0.242,0.241,0.2412,0.2411,0.2415,0.2402,0.2401,0.2401,0.2378,0.2375,0.2394,0.2394,0.236,0.2357,0.2354,0.2363,0.2341,0.234,0.2339,0.2329,0.233,0.233,0,0,0,0,0,0,0.242,0.242,0.2413,0.2412,0.2411,0.2403,0.2403,0.2401,0.2398,0.2379,0.2376,0.2395,0.236,0.2356,0.2347,0.236,0.2339,0.2337,0.2328,0.2329,0.233,0.2364,0,0,0,0,0,0,0.242,0.242,0.242,0.2413,0.2412,0.2411,0.2403,0.2401,0.24,0.2399,0.2378,0.2375,0.236,0.235,0.2345,0.2358,0.2336,0.2327,0.2328,0.233,0.2362,0.2366,0.237,0,0,0,0,0,0.242,0.2416,0.2421,0.2421,0.2413,0.2411,0.2409,0.2402,0.24,0.2399,0.2388,0.2376,0.2355,0.2348,0.2343,0.2356,0.2326,0.2328,0.233,0.2361,0.2366,0.237,0,0,0,0,0,0,0.2405,0.2415,0.2419,0.2416,0.2419,0.241,0.2406,0.2406,0.2395,0.2395,0.2377,0.2372,0.2374,0.2359,0.2352,0.2358,0.2342,0.2343,0.2367,0.2372,0.2376,0.2387,0.2335,0,0,0,0,0,0.2406,0.2412,0.2417,0.2415,0.2418,0.2415,0.2413,0.2412,0.2404,0.24,0.2387,0.2377,0.2376,0.2369,0.2361,0.2356,0.2371,0.2364,0.2368,0.2371,0.2378,0.2418,0.2426,0.2335,0.2335,0.2335,0,0,0.2398,0.2406,0.2407,0.2414,0.2414,0.2416,0.2413,0.2414,0.2418,0.2397,0.2392,0.2389,0.2379,0.2379,0.2379,0.2367,0.2406,0.2373,0.2376,0.2382,0.242,0.2429,0.2437,0.2337,0.2336,0.2336,0,0,0.2387,0.2395,0.2398,0.2406,0.2416,0.2417,0.2421,0.2419,0.242,0.2418,0.2414,0.242,0.2401,0.2404,0.2403,0.2422,0.2429,0.2421,0.2443,0.2481,0.2489,0.2497,0.2535,0.2546,0.2418,0.2418,0.2418,0,0.2377,0.2383,0.2397,0.2404,0.2412,0.242,0.2424,0.2427,0.2422,0.2433,0.2421,0.243,0.2416,0.2437,0.2443,0.2431,0.2456,0.2425,0.2488,0.2495,0.2502,0.2539,0.255,0.242,0.242,0.242,0.242,0,0.237,0.2378,0.238,0.2398,0.2408,0.2412,0.2428,0.2441,0.2446,0.245,0.2474,0.2464,0.2475,0.2472,0.2458,0.2502,0.2506,0.2492,0.2477,0.2513,0.255,0.2561,0.2423,0.2422,0.2422,0.2421,0,0,0.2329,0.2368,0.2366,0.2379,0.2407,0.241,0.2439,0.2463,0.2487,0.249,0.2521,0.252,0.253,0.253,0.2525,0.2548,0.2611,0.254,0.2541,0.2581,0.2706,0.2707,0.2719,0.2613,0.2614,0.2616,0.2715,0,0.2316,0.2331,0.2357,0.2369,0.2377,0.2416,0.2438,0.2469,0.2496,0.2527,0.2545,0.2564,0.2548,0.256,0.2585,0.261,0.264,0.2586,0.2662,0.2665,0.2664,0.2732,0.2621,0.27,0.2726,0.2727,0.2729,0,0.2293,0.231,0.2324,0.2366,0.2373,0.2386,0.2444,0.2468,0.253,0.2553,0.2598,0.2617,0.2665,0.2635,0.2715,0.2685,0.27,0.2712,0.2716,0.2713,0.2687,0.2667,0.2719,0.2644,0.2745,0.2744,0.2743,0,0.2251,0.2281,0.2294,0.2307,0.2356,0.238,0.2409,0.2475,0.2516,0.2581,0.2626,0.2677,0.2722,0.2755,0.2795,0.2762,0.288,0.2837,0.2854,0.2855,0.2773,0.2763,0.2763,0.2891,0.2891,0.289,0.289,0,0.2222,0.2226,0.2275,0.228,0.2304,0.2351,0.2394,0.2441,0.2523,0.2585,0.2637,0.2707,0.2756,0.2832,0.2837,0.2903,0.2925,0.2883,0.289,0.2782,0.2772,0.2713,0.268,0.2894,0.2893,0.2892,0.2892,0,0.217,0.2203,0.2219,0.2268,0.2287,0.2304,0.2388,0.2425,0.251,0.2605,0.2635,0.2758,0.2865,0.2915,0.2986,0.2974,0.2934,0.3021,0.2898,0.2888,0.2815,0.2788,0.271,0.2626,0.3058,0.3058,0.3059,0,0.2142,0.2149,0.22,0.2216,0.2239,0.2279,0.2313,0.2403,0.2462,0.2642,0.2688,0.2834,0.2921,0.3043,0.3054,0.309,0.2975,0.2996,0.2905,0.2822,0.2797,0.2668,0.2592,0.2812,0.281,0.2809,0.2808,0,0.2095,0.2118,0.2138,0.2178,0.221,0.2243,0.2307,0.2352,0.2482,0.2564,0.27,0.279,0.2955,0.2962,0.3035,0.3033,0.2849,0.2974,0.2912,0.2638,0.2472,0.239,0.2741,0.2798,0.2799,0.28,0.28,0.2801,0.2062,0.2069,0.2111,0.214,0.2171,0.2199,0.22,0.2277,0.2351,0.2457,0.2621,0.27,0.282,0.2914,0.2908,0.2838,0.2808,0.2728,0.2716,0.2604,0.2473,0.2816,0.2864,0.2865,0.2867,0.2868,0.2869,0,0.2033,0.2052,0.2073,0.21,0.21,0.2142,0.2187,0.217,0.2202,0.2328,0.2413,0.2536,0.2577,0.266,0.269,0.2589,0.2429,0.2501,0.2275,0.2223,0.2556,0.2495,0.2435,0.2435,0.2435,0.2435,0.2435,0.2435,0.2025,0.2037,0.2047,0.2031,0.2037,0.2,0.2001,0.1984,0.203,0.2066,0.2127,0.2237,0.2442,0.2527,0.2473,0.24,0.2185,0.2077,0.2071,0.2297,0.2315,0.2333,0.2267,0.216,0.216,0.1612,0.1608,0.1605]},{"header":{"parameterUnit":"m.s-1","parameterCategory":2,"la1":30.2991,"la2":30.254,"lo1":-89.0895,"lo2":-89.0444,"dy":0.0017,"dx":0.0017,"nx":28,"ny":28,"refTime":"2023-08-29T03:00:00:Z","depth":"0","parameterNumber":3,"parameterNumberName":"V-component_of_CURRENTS"},"data":[0,0,0,0,0,0,0,0,0,0,0,0,0,0,0,0,0,0,0,0,0,0,0,0,0,0,0,0,0,0,0,0,0,0,0,0,0,0,0,0,0,0,0,0,0,0,0,0,0,0,0,0,0,0,0,0,0,0,0.0023,0.0023,0,-0.0017,-0.0017,-0.0018,-0.005,-0.005,-0.005,-0.005,-0.0121,-0.0122,-0.0124,0,0,0,0,0,0,0,0,0,0,0,0,0,0.0022,0.0023,0.0023,0.0023,0.0023,-0.0017,-0.0017,-0.0018,-0.005,-0.005,-0.005,-0.005,-0.012,-0.0122,-0.0124,0,0,0,0,0,0,0,0,0,0,0,0,0,0.0004,0.0023,0.0023,0.0004,0.0002,-0.0016,-0.0017,-0.0018,-0.005,-0.005,-0.005,-0.005,-0.0119,-0.0122,-0.0125,-0.0139,0,0,-0.0133,-0.0134,0,0,0,0,0,0,0,0,0.0005,0.0004,0.0007,0.0005,0.0003,-0.0026,-0.0043,-0.0059,-0.005,-0.0033,-0.005,-0.005,-0.009,-0.0095,-0.0106,-0.0142,-0.0145,-0.0133,-0.0135,-0.0136,-0.0137,0,0,0,0,0,0,0,0.0007,0.0005,0.0005,0.0007,0.0005,-0.0019,-0.0022,-0.0047,-0.0063,-0.0034,-0.0036,-0.0036,-0.0092,-0.0103,-0.0108,-0.0146,-0.0133,-0.0136,-0.0137,-0.0138,-0.0176,-0.0176,0,0,0,0,0,0,0.002,0.0007,0.0006,0.0004,0.0007,-0.0019,-0.0022,-0.0019,-0.0062,-0.0068,-0.0036,-0.0037,-0.0098,-0.0104,-0.011,-0.011,-0.0136,-0.0139,-0.014,-0.0177,-0.0176,-0.0175,0,0,0,0,0,0,0.002,0.002,0.0008,0.0006,0.0003,-0.0018,-0.0015,-0.0019,-0.0026,-0.0063,-0.0069,-0.0037,-0.0099,-0.0106,-0.0125,-0.0114,-0.014,-0.0142,-0.0178,-0.0177,-0.0176,-0.0123,0,0,0,0,0,0,0.002,0.0021,0.0026,0.0007,0.0004,0.0006,-0.0015,-0.002,-0.0025,-0.0027,-0.0066,-0.0073,-0.0099,-0.0121,-0.0128,-0.0118,-0.0144,-0.0178,-0.0177,-0.0176,-0.0125,-0.012,-0.0116,0,0,0,0,0,0.002,0.0035,0.0027,0.0027,0.0013,0.0007,0.0003,-0.0015,-0.0024,-0.0023,-0.0049,-0.0071,-0.0118,-0.0122,-0.0131,-0.0122,-0.0179,-0.0178,-0.0176,-0.0127,-0.0121,-0.0116,0,0,0,0,0,0,0.004,0.0032,0.0024,0.0035,0.0025,0.0003,0.0004,-0.0009,-0.0029,-0.0031,-0.0068,-0.0077,-0.0088,-0.0111,-0.0115,-0.0128,-0.015,-0.015,-0.011,-0.0105,-0.01,-0.0088,-0.0147,0,0,0,0,0,0.0048,0.0053,0.0041,0.0049,0.0047,0.0025,0.002,0.001,-0.0009,-0.0018,-0.0044,-0.007,-0.009,-0.0101,-0.0124,-0.0134,-0.0161,-0.0132,-0.0127,-0.0123,-0.0117,-0.015,-0.0147,-0.0171,-0.0171,-0.0171,0,0,0.0059,0.0054,0.0058,0.0054,0.0042,0.0048,0.0022,0.0021,0.0025,-0.0023,-0.0027,-0.0056,-0.0088,-0.0098,-0.0105,-0.0116,-0.0129,-0.0121,-0.0117,-0.0114,-0.0148,-0.0146,-0.0144,-0.017,-0.017,-0.017,0,0,0.0086,0.0079,0.0093,0.0086,0.0078,0.0068,0.0072,0.0054,0.0045,0.0035,0.0006,-0.0015,-0.0047,-0.0067,-0.0082,-0.0064,-0.0103,-0.0068,-0.0036,-0.0067,-0.0065,-0.0064,-0.0092,-0.0094,-0.0066,-0.0066,-0.0066,0,0.0098,0.0114,0.0097,0.0106,0.0107,0.0083,0.0099,0.0088,0.0066,0.0061,0.0043,-0.0001,-0.0031,-0.0042,-0.0036,-0.0053,-0.0077,-0.0056,-0.0061,-0.0061,-0.006,-0.0089,-0.0092,-0.0063,-0.0063,-0.0064,-0.0064,0,0.0133,0.0143,0.0151,0.0157,0.0157,0.0165,0.0152,0.015,0.0135,0.0118,0.0101,0.0057,0.0032,0.002,-0.0005,-0.0013,-0.0032,-0.0052,-0.0075,-0.0055,-0.0087,-0.009,-0.0059,-0.006,-0.0061,-0.0062,0,0,0.017,0.0175,0.0179,0.0191,0.0183,0.0192,0.0201,0.0202,0.0211,0.0177,0.018,0.0137,0.0108,0.009,0.0055,0.0026,0.0003,-0.0008,-0.0011,-0.0035,-0.0064,-0.0065,-0.007,-0.002,-0.002,-0.0021,-0.0086,0,0.0203,0.0236,0.0228,0.0262,0.0279,0.026,0.0275,0.027,0.0252,0.0247,0.0197,0.0183,0.0137,0.0125,0.009,0.0029,-0.0005,0.0023,-0.0081,-0.0084,-0.0087,-0.0073,-0.0035,-0.0089,-0.009,-0.009,-0.0091,0,0.0242,0.026,0.0297,0.0321,0.0328,0.0342,0.036,0.0367,0.0347,0.0331,0.0299,0.0259,0.0218,0.0172,0.0076,0.0096,0.0022,-0.0033,-0.0038,-0.0059,-0.0092,-0.0111,-0.0096,-0.0217,-0.0097,-0.0097,-0.0096,0,0.0282,0.0311,0.0345,0.0349,0.037,0.0384,0.0396,0.039,0.0409,0.0379,0.0386,0.032,0.0303,0.02,0.0095,0.0081,-0.0014,-0.0051,-0.0124,-0.0125,-0.0123,-0.0123,-0.0236,-0.0127,-0.0127,-0.0127,-0.0127,0,0.032,0.035,0.0366,0.0383,0.0433,0.0427,0.0469,0.0468,0.0475,0.0516,0.0432,0.0452,0.031,0.0243,0.012,0.0001,0.0004,-0.0114,-0.014,-0.0102,-0.01,-0.0229,-0.0306,-0.0129,-0.0129,-0.0128,-0.0128,0,0.0358,0.0365,0.0409,0.0438,0.0451,0.0486,0.0528,0.0562,0.0554,0.0604,0.0603,0.0555,0.0473,0.0324,0.0171,0.0054,-0.0146,-0.0127,-0.0069,-0.0087,-0.0274,-0.0348,-0.0495,-0.0551,-0.0226,-0.0226,-0.0226,0,0.0379,0.0404,0.0453,0.0486,0.0499,0.0545,0.0586,0.06,0.0648,0.0684,0.0726,0.0662,0.0652,0.0419,0.0201,-0.0014,-0.0147,-0.0137,-0.0163,-0.0275,-0.0378,-0.0433,-0.0473,-0.0143,-0.0143,-0.0142,-0.0142,0,0.0422,0.0437,0.0475,0.0546,0.0593,0.0656,0.0719,0.0774,0.0815,0.0866,0.0937,0.0928,0.0724,0.0538,0.0236,0.008,-0.0214,-0.0138,-0.0271,-0.0334,-0.0385,-0.0452,-0.0114,-0.0139,-0.014,-0.014,-0.014,-0.014,0.0458,0.0495,0.0546,0.0615,0.0678,0.0772,0.0834,0.0923,0.1024,0.1123,0.1109,0.1128,0.0837,0.0439,0.0216,-0.0179,-0.0207,-0.0301,-0.0386,-0.0434,-0.0477,-0.0129,-0.0173,-0.0174,-0.0174,-0.0174,-0.0175,0,0.0508,0.055,0.0615,0.07,0.0781,0.0805,0.0931,0.1009,0.115,0.1247,0.131,0.1195,0.0836,0.0452,-0.0077,-0.0363,-0.0474,-0.0532,-0.0605,-0.0638,-0.0337,-0.0322,-0.0378,-0.0378,-0.0378,-0.0378,-0.0378,-0.0378,0.0539,0.0608,0.0639,0.0772,0.0837,0.0949,0.1028,0.1156,0.1256,0.1379,0.1414,0.1416,0.1134,0.0188,-0.0462,-0.0622,-0.0824,-0.0869,-0.0995,-0.0792,-0.0777,-0.0762,-0.0765,-0.0914,-0.0915,-0.1233,-0.1236,-0.1239]}],[{"header":{"parameterUnit":"m.s-1","parameterCategory":2,"la1":30.2991,"la2":30.254,"lo1":-89.0895,"lo2":-89.0444,"dy":0.0017,"dx":0.0017,"nx":28,"ny":28,"refTime":"2023-08-29T03:00:00:Z","depth":"2","parameterNumber":2,"parameterNumberName":"U-component_of_CURRENTS"},"data":[0,0,0,0,0,0,0,0,0,0,0,0,0,0,0,0,0,0,0,0,0,0,0,0,0,0,0,0,0,0,0,0,0,0,0,0,0,0,0,0,0,0,0,0,0,0,0,0,0,0,0,0,0,0,0,0,0,0,0.2248,0.2248,0,0.2248,0.2248,0.2248,0.2247,0.2247,0.2247,0.2247,0.2238,0.2238,0.2237,0,0,0,0,0,0,0,0,0,0,0,0,0,0.2232,0.2232,0.2248,0.2248,0.2248,0.2248,0.2248,0.2248,0.2247,0.2247,0.2247,0.2247,0.2238,0.2238,0.2237,0,0,0,0,0,0,0,0,0,0,0,0,0,0.2234,0.2232,0.2248,0.2249,0.2249,0.2248,0.2248,0.2248,0.2247,0.2247,0.2247,0.2247,0.2238,0.2238,0.2237,0.2229,0,0,0.2236,0.2235,0,0,0,0,0,0,0,0,0.2234,0.2234,0.2249,0.2249,0.2249,0.2249,0.2239,0.2242,0.2247,0.2245,0.2247,0.2247,0.2242,0.2241,0.2238,0.2229,0.2228,0.2236,0.2235,0.2235,0.2235,0,0,0,0,0,0,0,0.2234,0.2234,0.2246,0.2249,0.2249,0.2245,0.2245,0.2239,0.2241,0.2246,0.2246,0.2249,0.2242,0.2239,0.2238,0.2228,0.2236,0.2235,0.2235,0.2234,0.2252,0.2253,0,0,0,0,0,0,0.2238,0.2234,0.2246,0.2246,0.2244,0.2245,0.2246,0.2247,0.2241,0.2241,0.2249,0.2249,0.224,0.2239,0.2238,0.2262,0.2235,0.2234,0.2234,0.2251,0.2252,0.2253,0,0,0,0,0,0,0.2238,0.2239,0.2246,0.2242,0.2243,0.2246,0.2247,0.2247,0.2255,0.2244,0.2244,0.2258,0.224,0.2238,0.2243,0.2261,0.2234,0.2234,0.225,0.2251,0.2253,0.2289,0,0,0,0,0,0,0.2237,0.2239,0.2243,0.2242,0.2243,0.2254,0.2247,0.2247,0.2257,0.2257,0.2251,0.225,0.224,0.2244,0.2243,0.2259,0.2233,0.2249,0.2251,0.2252,0.2287,0.2292,0.2296,0,0,0,0,0,0.2237,0.2239,0.2243,0.2245,0.2248,0.2254,0.2254,0.2255,0.2257,0.2262,0.226,0.2251,0.2253,0.2244,0.2242,0.2259,0.2248,0.225,0.2252,0.2285,0.2291,0.2296,0,0,0,0,0,0,0.2228,0.2239,0.2244,0.2248,0.2257,0.2255,0.226,0.2262,0.2264,0.2267,0.2256,0.2255,0.2269,0.2258,0.2249,0.227,0.2251,0.2253,0.2277,0.2282,0.2287,0.2294,0.2233,0,0,0,0,0,0.2231,0.2239,0.2247,0.2252,0.2258,0.2262,0.2266,0.2269,0.2271,0.2272,0.2268,0.2267,0.2272,0.2273,0.2272,0.2279,0.2289,0.229,0.2295,0.2298,0.2303,0.2338,0.2347,0.2259,0.2259,0.2259,0,0,0.2227,0.2236,0.224,0.2252,0.2258,0.2266,0.2265,0.2276,0.2284,0.2271,0.2279,0.2282,0.2278,0.229,0.2295,0.2283,0.233,0.2301,0.2304,0.2307,0.2341,0.235,0.2358,0.226,0.226,0.226,0,0,0.2225,0.2237,0.2243,0.2255,0.2271,0.2275,0.2282,0.2289,0.2296,0.2305,0.2304,0.2318,0.2315,0.2321,0.2322,0.2349,0.2354,0.2352,0.2376,0.241,0.2417,0.2424,0.2455,0.2464,0.2351,0.2351,0.2351,0,0.2222,0.223,0.2246,0.2257,0.2268,0.2281,0.2291,0.2299,0.2307,0.2321,0.2314,0.2337,0.2331,0.2358,0.2366,0.236,0.238,0.2356,0.2416,0.2423,0.2429,0.2459,0.2469,0.2353,0.2353,0.2353,0.2353,0,0.2223,0.2235,0.2241,0.2261,0.2276,0.2287,0.2306,0.2326,0.2337,0.2345,0.2378,0.2376,0.2394,0.2395,0.2386,0.2431,0.2432,0.242,0.2404,0.2441,0.247,0.2479,0.2356,0.2356,0.2355,0.2354,0,0,0.2195,0.2234,0.2234,0.2247,0.2281,0.2288,0.2323,0.2351,0.2377,0.2391,0.2425,0.2437,0.2448,0.2452,0.2452,0.2474,0.2533,0.2468,0.2468,0.25,0.2616,0.2594,0.2602,0.2537,0.2538,0.254,0.262,0,0.2188,0.2207,0.2233,0.2251,0.2262,0.2302,0.2328,0.2362,0.2394,0.2429,0.2453,0.2478,0.2466,0.2483,0.2508,0.2531,0.2559,0.2512,0.2574,0.2576,0.2553,0.2612,0.2391,0.2442,0.263,0.2631,0.2632,0,0.2173,0.219,0.2209,0.2251,0.226,0.2278,0.2338,0.2366,0.2431,0.2457,0.2505,0.2526,0.2575,0.2551,0.2623,0.2599,0.2613,0.2622,0.2626,0.2598,0.2572,0.2435,0.2452,0.2648,0.2647,0.2646,0.2645,0,0.2135,0.2169,0.2184,0.2198,0.2249,0.2276,0.2308,0.2375,0.2416,0.2485,0.2528,0.2581,0.2624,0.2656,0.2692,0.2666,0.2766,0.2731,0.2725,0.2723,0.2542,0.2522,0.2779,0.2779,0.2779,0.2778,0.2778,0,0.2111,0.2119,0.2168,0.2175,0.2202,0.2251,0.2298,0.2345,0.2426,0.2479,0.254,0.2603,0.2655,0.2721,0.2727,0.2772,0.2804,0.2747,0.275,0.255,0.253,0.2707,0.2698,0.2781,0.2781,0.278,0.278,0,0.2064,0.2096,0.2114,0.2167,0.2186,0.2207,0.2292,0.2327,0.2412,0.2495,0.2524,0.2643,0.2733,0.2781,0.2845,0.2827,0.2857,0.2857,0.2623,0.2597,0.2779,0.277,0.2861,0.2861,0.2861,0.2861,0.2861,0,0.2039,0.2046,0.2098,0.2113,0.2138,0.2183,0.2217,0.2306,0.2357,0.2519,0.2555,0.2687,0.2752,0.2854,0.2849,0.2869,0.2895,0.2669,0.2574,0.2798,0.2791,0.2782,0.2774,0.2347,0.2343,0.2339,0.2337,0,0.1995,0.2018,0.2037,0.2073,0.2105,0.2137,0.2198,0.2233,0.235,0.242,0.253,0.2602,0.2731,0.2666,0.2717,0.2693,0.2646,0.2602,0.2902,0.2369,0.2322,0.2313,0.232,0.2306,0.2309,0.2311,0.2313,0.2314,0.1963,0.1968,0.2003,0.2027,0.2058,0.2076,0.2075,0.2141,0.2197,0.2275,0.2415,0.2443,0.2497,0.2471,0.2413,0.2373,0.2549,0.2409,0.2415,0.2426,0.2361,0.2318,0.2289,0.2291,0.2294,0.2296,0.2298,0,0.1923,0.1939,0.1956,0.1974,0.1964,0.2016,0.2047,0.2021,0.2031,0.2122,0.2179,0.2056,0.2035,0.2091,0.199,0.2008,0.1944,0.1918,0.1797,0.1831,0.1861,0.1761,0.1532,0.153,0.1527,0.1525,0,0,0.1909,0.1905,0.1908,0.1874,0.1884,0.1844,0.1836,0.1812,0.1833,0.1805,0.18,0.1946,0.2036,0.1749,0.1725,0.1605,0.1695,0.1546,0.2167,0.2059,0.2084,0.2163,0.2053,0,0,0,0,0]},{"header":{"parameterUnit":"m.s-1","parameterCategory":2,"la1":30.2991,"la2":30.254,"lo1":-89.0895,"lo2":-89.0444,"dy":0.0017,"dx":0.0017,"nx":28,"ny":28,"refTime":"2023-08-29T03:00:00:Z","depth":"2","parameterNumber":3,"parameterNumberName":"V-component_of_CURRENTS"},"data":[0,0,0,0,0,0,0,0,0,0,0,0,0,0,0,0,0,0,0,0,0,0,0,0,0,0,0,0,0,0,0,0,0,0,0,0,0,0,0,0,0,0,0,0,0,0,0,0,0,0,0,0,0,0,0,0,0,0,0.0106,0.0106,0,0.0063,0.0062,0.0062,0.0034,0.0034,0.0034,0.0034,-0.0038,-0.0039,-0.0041,0,0,0,0,0,0,0,0,0,0,0,0,0,0.0112,0.0112,0.0106,0.0105,0.0105,0.0063,0.0062,0.0062,0.0034,0.0034,0.0034,0.0034,-0.0037,-0.0039,-0.0042,0,0,0,0,0,0,0,0,0,0,0,0,0,0.0092,0.0112,0.0106,0.0088,0.0086,0.0063,0.0062,0.0061,0.0034,0.0034,0.0034,0.0034,-0.0036,-0.0039,-0.0042,-0.0059,0,0,-0.0051,-0.0052,0,0,0,0,0,0,0,0,0.0093,0.0091,0.0091,0.0089,0.0087,0.0056,0.0039,0.002,0.0034,0.0051,0.0034,0.0034,-0.0008,-0.0013,-0.0023,-0.0063,-0.0066,-0.0051,-0.0053,-0.0054,-0.0055,0,0,0,0,0,0,0,0.0094,0.0093,0.0087,0.009,0.0088,0.0064,0.0062,0.0035,0.002,0.005,0.0048,0.0047,-0.0009,-0.0021,-0.0025,-0.0067,-0.0051,-0.0053,-0.0055,-0.0056,-0.0106,-0.0106,0,0,0,0,0,0,0.0106,0.0094,0.0088,0.0086,0.0092,0.0064,0.0061,0.0064,0.0021,0.0015,0.0047,0.0046,-0.0016,-0.0022,-0.0028,-0.0035,-0.0054,-0.0056,-0.0058,-0.0106,-0.0106,-0.0106,0,0,0,0,0,0,0.0107,0.0107,0.009,0.009,0.0087,0.0065,0.0068,0.0063,0.0055,0.0019,0.0013,0.0044,-0.0016,-0.0024,-0.0046,-0.0038,-0.0058,-0.006,-0.0107,-0.0106,-0.0106,-0.0059,0,0,0,0,0,0,0.0107,0.0107,0.0111,0.0091,0.0087,0.0083,0.0068,0.0062,0.0055,0.0053,0.0015,0.0008,-0.0017,-0.0042,-0.0049,-0.0043,-0.0062,-0.0107,-0.0107,-0.0106,-0.0061,-0.0057,-0.0053,0,0,0,0,0,0.0108,0.0117,0.0112,0.0111,0.0095,0.0083,0.0079,0.0061,0.0055,0.0053,0.0029,0.0009,-0.0042,-0.0044,-0.0053,-0.0047,-0.0108,-0.0107,-0.0106,-0.0062,-0.0057,-0.0053,0,0,0,0,0,0,0.0123,0.0115,0.0109,0.0116,0.0103,0.0079,0.0077,0.0065,0.0044,0.0044,0.0009,0.0,-0.0015,-0.0038,-0.0039,-0.0058,-0.0076,-0.0077,-0.004,-0.0036,-0.0032,-0.0017,-0.0065,0,0,0,0,0,0.0129,0.0134,0.012,0.0124,0.0121,0.01,0.0092,0.0082,0.0063,0.0054,0.0027,0.0002,-0.0019,-0.0032,-0.0055,-0.007,-0.0093,-0.007,-0.0066,-0.0063,-0.0056,-0.0084,-0.0082,-0.0103,-0.0103,-0.0103,0,0,0.0136,0.0132,0.0135,0.0128,0.0116,0.0119,0.0095,0.009,0.0093,0.0049,0.0041,0.0012,-0.002,-0.0033,-0.0042,-0.0051,-0.0069,-0.0062,-0.0058,-0.0053,-0.0083,-0.0081,-0.0079,-0.0102,-0.0102,-0.0102,0,0,0.0156,0.015,0.0162,0.0153,0.0143,0.0134,0.0136,0.0116,0.0107,0.0094,0.0067,0.0045,0.001,-0.0009,-0.0024,-0.0014,-0.0048,-0.002,0.001,-0.0018,-0.0017,-0.0016,-0.0042,-0.0044,-0.0018,-0.0018,-0.0018,0,0.0164,0.0178,0.0162,0.0168,0.0169,0.0145,0.0158,0.0145,0.0121,0.0117,0.0099,0.0053,0.0023,0.0011,0.0014,-0.0004,-0.0026,-0.0005,-0.0013,-0.0012,-0.0012,-0.004,-0.0042,-0.0016,-0.0016,-0.0016,-0.0016,0,0.0191,0.02,0.0205,0.021,0.0208,0.0213,0.02,0.0196,0.0182,0.0165,0.0147,0.0103,0.0078,0.0064,0.004,0.0031,0.0013,-0.0005,-0.0023,-0.0007,-0.0037,-0.0041,-0.0012,-0.0013,-0.0014,-0.0014,0,0,0.0218,0.0224,0.0227,0.024,0.0231,0.0238,0.0243,0.0243,0.0252,0.0216,0.0219,0.0173,0.0147,0.013,0.0095,0.0068,0.0045,0.0036,0.0033,0.0012,-0.0016,-0.0025,-0.003,0.0025,0.0024,0.0024,-0.0038,0,0.0245,0.0274,0.0267,0.0299,0.0315,0.0297,0.031,0.0305,0.0287,0.0282,0.0234,0.022,0.0174,0.0163,0.0129,0.0071,0.0038,0.0064,-0.0031,-0.0033,-0.0041,-0.0033,-0.0003,-0.0055,-0.0041,-0.0042,-0.0042,0,0.0277,0.0294,0.0328,0.0355,0.0362,0.0374,0.0393,0.0398,0.0379,0.0364,0.0333,0.0295,0.0255,0.021,0.0118,0.0136,0.0066,0.0013,0.0009,-0.0016,-0.0048,-0.0069,-0.0062,-0.0049,-0.0048,-0.0048,-0.0047,0,0.0315,0.0341,0.0374,0.0378,0.04,0.0414,0.0427,0.0422,0.044,0.0411,0.0418,0.0355,0.0338,0.0241,0.0136,0.0124,0.0033,0.0,-0.0077,-0.0078,-0.0079,-0.008,-0.0071,-0.0071,-0.0071,-0.0071,-0.0071,0,0.0349,0.0378,0.0394,0.0411,0.0462,0.0457,0.05,0.0499,0.0506,0.0543,0.0464,0.0479,0.0345,0.0279,0.0162,0.0043,0.0051,-0.0068,-0.0093,-0.0062,-0.0061,-0.0076,-0.0076,-0.0073,-0.0073,-0.0072,-0.0072,0,0.0385,0.0391,0.0435,0.0466,0.0479,0.0514,0.0558,0.0592,0.0584,0.0629,0.0627,0.0577,0.0491,0.035,0.0202,0.0092,-0.0035,-0.0084,-0.0036,-0.0055,-0.0139,-0.0135,-0.0182,-0.0182,-0.0183,-0.0184,-0.0184,0,0.0405,0.043,0.0479,0.0512,0.0526,0.0573,0.0615,0.063,0.0675,0.07,0.0738,0.0669,0.0642,0.0416,0.0212,0.0006,-0.0029,-0.011,-0.0134,-0.0129,-0.0149,-0.0145,-0.0141,-0.012,-0.012,-0.012,-0.012,0,0.0448,0.0463,0.0499,0.0569,0.0617,0.0681,0.0742,0.0793,0.0828,0.0865,0.0913,0.0888,0.0687,0.0493,0.0209,0.0071,-0.0077,-0.0116,-0.012,-0.0093,-0.0075,-0.0094,-0.0091,-0.0119,-0.0119,-0.0119,-0.0119,-0.0119,0.0481,0.0517,0.0564,0.0631,0.0695,0.0785,0.0842,0.0919,0.1002,0.1066,0.1046,0.1008,0.0787,0.0428,0.0186,-0.0071,-0.0066,-0.0163,-0.0162,-0.0161,-0.0139,-0.0123,-0.0172,-0.0172,-0.0173,-0.0173,-0.0173,0,0.0525,0.0564,0.0627,0.0707,0.0783,0.0813,0.0929,0.0988,0.1094,0.1149,0.1174,0.0963,0.0742,0.0475,0.01,-0.0125,-0.0141,-0.0201,-0.017,-0.0169,-0.0168,-0.0145,-0.0181,-0.0182,-0.0182,-0.0183,0,0,0.055,0.0612,0.0641,0.0763,0.0826,0.0932,0.1001,0.1092,0.1153,0.12,0.1179,0.1134,0.0821,0.0546,0.0246,0.0029,-0.0021,-0.0014,0.002,0.0094,0.0097,-0.0116,-0.0075,0,0,0,0,0]}],[{"header":{"parameterUnit":"m.s-1","parameterCategory":2,"la1":30.2991,"la2":30.254,"lo1":-89.0895,"lo2":-89.0444,"dy":0.0017,"dx":0.0017,"nx":28,"ny":28,"refTime":"2023-08-29T03:00:00:Z","depth":"4","parameterNumber":2,"parameterNumberName":"U-component_of_CURRENTS"},"data":[0,0,0,0,0,0,0,0,0,0,0,0,0,0,0,0,0,0,0,0,0,0,0,0,0,0,0,0,0,0,0,0,0,0,0,0,0,0,0,0,0,0,0,0,0,0,0,0,0,0,0,0,0,0,0,0,0,0,0.1448,0.1449,0,0.15,0.1501,0.1501,0.1551,0.1552,0.1552,0.1553,0.1618,0.1619,0.162,0,0,0,0,0,0,0,0,0,0,0,0,0,0.1391,0.1391,0.1448,0.1449,0.145,0.15,0.1501,0.1501,0.1551,0.1552,0.1553,0.1553,0.1617,0.1619,0.162,0,0,0,0,0,0,0,0,0,0,0,0,0,0.1425,0.1391,0.1448,0.1481,0.1485,0.15,0.1501,0.1501,0.1551,0.1552,0.1553,0.1554,0.1617,0.1619,0.162,0.1607,0,0,0.1625,0.1625,0,0,0,0,0,0,0,0,0.1423,0.1427,0.1476,0.1479,0.1483,0.1521,0.1504,0.1538,0.155,0.1524,0.1553,0.1554,0.1587,0.1591,0.1596,0.161,0.1612,0.1625,0.1626,0.1626,0.1627,0,0,0,0,0,0,0,0.1421,0.1425,0.1467,0.1476,0.1481,0.1494,0.15,0.1511,0.1548,0.1527,0.1531,0.1538,0.1589,0.1594,0.1598,0.1613,0.1625,0.1626,0.1627,0.1628,0.1716,0.1717,0,0,0,0,0,0,0.1416,0.1423,0.1466,0.1469,0.1457,0.1494,0.15,0.1507,0.1547,0.1555,0.1537,0.154,0.1591,0.1596,0.16,0.1675,0.1626,0.1628,0.1629,0.1714,0.1716,0.1718,0,0,0,0,0,0,0.1414,0.1419,0.1464,0.1448,0.1455,0.1494,0.15,0.1507,0.1547,0.1556,0.1563,0.1574,0.1592,0.1598,0.1641,0.1674,0.1628,0.163,0.1713,0.1715,0.1717,0.1767,0,0,0,0,0,0,0.1412,0.1418,0.1436,0.1448,0.1456,0.1494,0.15,0.1508,0.1548,0.1554,0.1589,0.1594,0.1594,0.1639,0.1643,0.1676,0.1631,0.1711,0.1714,0.1716,0.1764,0.1771,0.1777,0,0,0,0,0,0.141,0.1424,0.1436,0.1442,0.1474,0.1495,0.1501,0.1531,0.1549,0.157,0.1598,0.1595,0.1659,0.1642,0.1646,0.168,0.171,0.1713,0.1716,0.1761,0.1769,0.1777,0,0,0,0,0,0,0.141,0.1431,0.1444,0.1466,0.149,0.1505,0.1532,0.1549,0.1586,0.1603,0.161,0.1617,0.1667,0.1666,0.1647,0.1713,0.1685,0.1689,0.1718,0.1726,0.1732,0.1729,0.1632,0,0,0,0,0,0.1416,0.1437,0.1455,0.1478,0.1493,0.1518,0.1538,0.1558,0.1584,0.1604,0.1627,0.1654,0.1677,0.1697,0.1714,0.1749,0.1749,0.1774,0.1781,0.1787,0.1788,0.1818,0.1827,0.1728,0.1728,0.1728,0,0,0.1424,0.1439,0.1452,0.1481,0.1504,0.1526,0.1534,0.1573,0.16,0.1603,0.1659,0.1679,0.1691,0.1733,0.1755,0.1741,0.1817,0.1791,0.1795,0.1793,0.1822,0.1832,0.184,0.173,0.173,0.173,0,0,0.1437,0.1464,0.1482,0.1505,0.1544,0.1556,0.1575,0.1609,0.1639,0.1683,0.1696,0.1737,0.1773,0.1788,0.1799,0.1851,0.185,0.1866,0.1899,0.1929,0.1937,0.1944,0.1963,0.1972,0.187,0.187,0.187,0,0.1448,0.1469,0.1493,0.1516,0.154,0.1573,0.1598,0.1627,0.1674,0.1701,0.1712,0.1782,0.1795,0.184,0.1863,0.1866,0.1881,0.1867,0.1937,0.1944,0.195,0.1968,0.1977,0.1873,0.1873,0.1873,0.1872,0,0.1463,0.1493,0.151,0.1547,0.1576,0.1607,0.1642,0.1687,0.1727,0.175,0.1818,0.1841,0.1883,0.1897,0.1897,0.1956,0.1952,0.194,0.1915,0.1963,0.1979,0.1987,0.1877,0.1876,0.1875,0.1875,0,0,0.1448,0.1508,0.1516,0.154,0.1598,0.1616,0.1676,0.1725,0.1767,0.1821,0.1872,0.1921,0.1946,0.1959,0.1974,0.2,0.2062,0.1998,0.1999,0.2013,0.2132,0.2008,0.2004,0.207,0.2072,0.2073,0.2127,0,0.1455,0.1495,0.1528,0.1575,0.1597,0.1654,0.1698,0.1753,0.1808,0.1865,0.1908,0.1959,0.1965,0.1998,0.2031,0.2056,0.2085,0.2048,0.2086,0.2087,0.1967,0.201,0.2078,0.2132,0.2134,0.2136,0.2136,0,0.145,0.1479,0.1524,0.1585,0.1603,0.1642,0.1726,0.1772,0.1857,0.1901,0.1969,0.2004,0.207,0.2058,0.2135,0.2117,0.2133,0.2142,0.2145,0.2013,0.1976,0.2073,0.2151,0.215,0.2149,0.2148,0.2147,0,0.1408,0.1472,0.1509,0.1532,0.1607,0.1653,0.1703,0.1791,0.1837,0.1935,0.1982,0.2056,0.2107,0.2145,0.2186,0.2172,0.2252,0.2229,0.2129,0.2121,0.2194,0.2186,0.2273,0.2273,0.2273,0.2273,0.2272,0,0.1382,0.1414,0.1499,0.1517,0.1568,0.1635,0.1706,0.1769,0.1861,0.1912,0.2003,0.2054,0.2136,0.2193,0.2209,0.2197,0.2278,0.2138,0.2126,0.2215,0.2209,0.22,0.2191,0.2275,0.2274,0.2274,0.2273,0,0.1325,0.1383,0.1428,0.1518,0.1551,0.1592,0.1701,0.1741,0.1846,0.1922,0.1957,0.2076,0.2148,0.2209,0.2271,0.2215,0.2217,0.2192,0.2293,0.2286,0.2059,0.2052,0.2073,0.2069,0.2066,0.2063,0.2061,0,0.1296,0.1316,0.1417,0.1447,0.1496,0.157,0.1613,0.1722,0.1765,0.1921,0.194,0.2059,0.2124,0.2108,0.2185,0.2197,0.2174,0.2153,0.2089,0.2052,0.204,0.2038,0.2036,0.2056,0.2055,0.2054,0.2053,0,0.1237,0.129,0.1329,0.1392,0.1447,0.1491,0.1569,0.1584,0.1707,0.1823,0.187,0.191,0.1987,0.2028,0.2054,0.2062,0.215,0.2117,0.2123,0.2063,0.2031,0.2021,0.2023,0.2041,0.2043,0.2044,0.2045,0,0.1201,0.1214,0.1277,0.1317,0.1379,0.139,0.1442,0.1487,0.154,0.1702,0.1722,0.1851,0.1967,0.1961,0.1992,0.1983,0.1948,0.1868,0.1886,0.19,0.1819,0.175,0.1667,0,0,0,0,0,0.1154,0.1157,0.1192,0.1225,0.1279,0.1315,0.1397,0.1449,0.1572,0.1554,0.1627,0.169,0.1737,0.1811,0.1767,0.1926,0.196,0.1867,0.1878,0.1977,0.199,0.1911,0,0,0,0,0,0,0.1123,0.1158,0.116,0.1137,0.1142,0.1186,0.1232,0.1315,0.1309,0.1445,0.1478,0.1586,0.1659,0.1744,0.1736,0.1756,0.1726,0.195,0.1945,0.1969,0.1981,0.1992,0.1916,0,0,0,0,0]},{"header":{"parameterUnit":"m.s-1","parameterCategory":2,"la1":30.2991,"la2":30.254,"lo1":-89.0895,"lo2":-89.0444,"dy":0.0017,"dx":0.0017,"nx":28,"ny":28,"refTime":"2023-08-29T03:00:00:Z","depth":"4","parameterNumber":3,"parameterNumberName":"V-component_of_CURRENTS"},"data":[0,0,0,0,0,0,0,0,0,0,0,0,0,0,0,0,0,0,0,0,0,0,0,0,0,0,0,0,0,0,0,0,0,0,0,0,0,0,0,0,0,0,0,0,0,0,0,0,0,0,0,0,0,0,0,0,0,0,0.0123,0.0123,0,0.0094,0.0094,0.0093,0.0078,0.0078,0.0078,0.0078,0.0024,0.0022,0.0021,0,0,0,0,0,0,0,0,0,0,0,0,0,0.0129,0.0129,0.0123,0.0123,0.0123,0.0094,0.0094,0.0093,0.0078,0.0078,0.0078,0.0078,0.0024,0.0023,0.0021,0,0,0,0,0,0,0,0,0,0,0,0,0,0.0115,0.0129,0.0123,0.0113,0.0112,0.0094,0.0093,0.0093,0.0078,0.0078,0.0078,0.0078,0.0025,0.0023,0.002,0.0003,0,0,0.0013,0.0012,0,0,0,0,0,0,0,0,0.0116,0.0115,0.0115,0.0114,0.0112,0.0091,0.0076,0.0062,0.0078,0.009,0.0078,0.0079,0.0045,0.0041,0.0034,0.0001,-0.0002,0.0013,0.0012,0.0011,0.001,0,0,0,0,0,0,0,0.0117,0.0115,0.0111,0.0114,0.0113,0.0097,0.0095,0.0073,0.0065,0.0089,0.0088,0.0086,0.0044,0.0036,0.0032,-0.0002,0.0013,0.0011,0.001,0.0009,-0.0042,-0.0042,0,0,0,0,0,0,0.0125,0.0117,0.0112,0.011,0.0116,0.0097,0.0095,0.0097,0.0066,0.0062,0.0086,0.0086,0.004,0.0035,0.003,0.0021,0.0011,0.0009,0.0007,-0.0042,-0.0042,-0.0042,0,0,0,0,0,0,0.0125,0.0125,0.0113,0.0113,0.0111,0.0097,0.0099,0.0096,0.0091,0.0065,0.006,0.0085,0.004,0.0033,0.0014,0.0018,0.0008,0.0005,-0.0042,-0.0042,-0.0042,-0.0006,0,0,0,0,0,0,0.0125,0.0125,0.0129,0.0114,0.0111,0.0105,0.0099,0.0095,0.009,0.009,0.0062,0.0057,0.0039,0.0018,0.0012,0.0015,0.0004,-0.0042,-0.0042,-0.0042,-0.0007,-0.0005,-0.0003,0,0,0,0,0,0.0126,0.013,0.0129,0.0128,0.0117,0.0106,0.0103,0.0092,0.009,0.0088,0.0071,0.0058,0.0014,0.0016,0.0009,0.0011,-0.0042,-0.0042,-0.0042,-0.0008,-0.0005,-0.0003,0,0,0,0,0,0,0.0134,0.0129,0.0127,0.0131,0.0121,0.0104,0.0102,0.0095,0.0079,0.008,0.0055,0.0049,0.0034,0.0016,0.0019,-0.0003,-0.0015,-0.0016,0.0013,0.0015,0.0017,0.0033,0.0002,0,0,0,0,0,0.0138,0.0142,0.0132,0.0135,0.0132,0.0118,0.0113,0.0106,0.0091,0.0085,0.0066,0.0046,0.0028,0.0017,-0.0002,-0.0017,-0.0033,-0.0019,-0.0017,-0.0015,-0.0007,-0.0029,-0.0028,-0.0041,-0.0041,-0.0041,0,0,0.0143,0.0141,0.0143,0.0137,0.013,0.013,0.0115,0.0111,0.0112,0.0081,0.0075,0.0052,0.0026,0.0012,0.0004,-0.0002,-0.002,-0.0015,-0.0013,-0.0006,-0.0029,-0.0028,-0.0026,-0.0041,-0.0041,-0.0041,0,0,0.0154,0.0152,0.016,0.0153,0.0146,0.014,0.0141,0.0127,0.0122,0.011,0.0091,0.0073,0.0042,0.0027,0.0014,0.0016,-0.0007,0.0009,0.0032,0.0011,0.0012,0.0013,-0.0008,-0.0009,0.001,0.001,0.001,0,0.0159,0.0169,0.0158,0.0162,0.0164,0.0148,0.0158,0.0147,0.0129,0.0127,0.0114,0.0077,0.0051,0.0039,0.0039,0.0023,0.0006,0.0025,0.0015,0.0015,0.0015,-0.0006,-0.0008,0.0012,0.0012,0.0012,0.0011,0,0.0174,0.0182,0.0185,0.019,0.0189,0.0193,0.0183,0.0181,0.0173,0.0162,0.0147,0.0111,0.0092,0.0077,0.0057,0.0048,0.0034,0.002,0.001,0.0019,-0.0005,-0.0007,0.0014,0.0014,0.0013,0.0013,0,0,0.0188,0.0196,0.0198,0.0212,0.0207,0.0213,0.0215,0.0217,0.0227,0.0198,0.0204,0.0163,0.0146,0.013,0.0101,0.0078,0.0059,0.0053,0.0051,0.0037,0.0012,-0.0,-0.0005,0.0043,0.0042,0.0042,-0.0006,0,0.0205,0.0227,0.0225,0.0252,0.0265,0.0256,0.0266,0.0264,0.0252,0.0251,0.0214,0.0204,0.0165,0.0158,0.0129,0.008,0.0054,0.0074,0.0001,-0.0001,-0.0009,-0.0007,0.0042,-0.0008,-0.0008,-0.0009,-0.0009,0,0.0223,0.0239,0.0267,0.0297,0.0304,0.0316,0.0338,0.0342,0.033,0.032,0.0298,0.0268,0.0235,0.0199,0.0123,0.0137,0.008,0.0036,0.0032,0.0009,-0.0017,-0.0019,-0.0014,-0.0014,-0.0013,-0.0013,-0.0013,0,0.0249,0.0273,0.0303,0.0308,0.0333,0.0349,0.0364,0.0364,0.0381,0.0363,0.0371,0.0321,0.0306,0.0228,0.0137,0.013,0.0049,0.0027,-0.0038,-0.004,-0.003,-0.0031,-0.0029,-0.0029,-0.0029,-0.0029,-0.0028,0,0.027,0.0296,0.032,0.0335,0.0384,0.0385,0.0427,0.043,0.044,0.0468,0.0412,0.0418,0.0313,0.0254,0.0158,0.0057,0.0065,-0.0031,-0.0052,-0.0015,-0.0013,-0.0033,-0.0032,-0.003,-0.003,-0.003,-0.0029,0,0.0291,0.0302,0.0343,0.0378,0.0395,0.0429,0.0478,0.0507,0.0508,0.054,0.0541,0.0496,0.0416,0.0303,0.0179,0.0096,-0.0009,-0.0051,0.0004,-0.0014,-0.0091,-0.0089,-0.0126,-0.0127,-0.0128,-0.0128,-0.0129,0,0.0303,0.0325,0.0378,0.041,0.0428,0.0477,0.0516,0.0538,0.0571,0.0589,0.0612,0.0551,0.0501,0.0326,0.0195,0.0013,-0.002,-0.0077,-0.0094,-0.0084,-0.0101,-0.0097,-0.0094,-0.013,-0.013,-0.013,-0.013,0,0.0328,0.0346,0.0379,0.0444,0.0493,0.0552,0.0607,0.0636,0.0666,0.0673,0.0669,0.0576,0.0486,0.0336,0.0194,0.0061,-0.0041,-0.0085,-0.0085,-0.0101,-0.0089,-0.0104,-0.01,-0.0133,-0.0132,-0.0132,-0.0132,0,0.0347,0.0374,0.0417,0.0475,0.0541,0.0606,0.0633,0.0674,0.0705,0.072,0.0719,0.0614,0.0557,0.0361,0.0233,0.0099,0.0055,0.0002,-0.0003,-0.0002,0.004,0.0073,0.0066,0,0,0,0,0,0.0361,0.0391,0.0446,0.0507,0.0576,0.0615,0.0688,0.071,0.0738,0.0743,0.0731,0.0644,0.0457,0.0381,0.0245,0.0203,0.0023,0.0037,-0.0043,-0.0145,-0.0143,-0.0117,0,0,0,0,0,0,0.037,0.0417,0.0441,0.0523,0.057,0.0648,0.0696,0.0719,0.0721,0.0729,0.0636,0.0596,0.0416,0.0532,0.0237,0.0198,0.0125,-0.0046,-0.005,-0.0147,-0.0145,-0.0142,-0.0115,0,0,0,0,0]}]]